Regional Weather Roundup
Issued by NWS

Home | Current Version | Previous Version | Graphics & Text | Print | Product List | Glossary On
Versions: 1 2 3 4 5 6 7 8 9 10 11 12 13 14 15 16 17 18 19 20 21 22 23 24 25 26 27
000
ASUS45 KBOU 182107
RWRCO

WEATHER ROUNDUP FOR COLORADO
NATIONAL WEATHER SERVICE DENVER/BOULDER CO
300 PM MDT MON SEP 18 2017

NOTE: "FAIR" INDICATES FEW OR NO CLOUDS BELOW 12000 FEET WITH NO
SIGNIFICANT WEATHER AND/OR OBSTRUCTIONS TO VISIBILITY.

COZ001>005-013-030-031-182200-
...NORTHWEST COLORADO...

CITY           SKY/WX    TMP DP  RH WIND       PRES   REMARKS
CRAIG          FAIR      78  24  13 W21G30    30.00F
HAYDEN         FAIR      73  27  18 W15G28    30.03F
MEEKER         FAIR      74  31  20 SW21G28   30.03F
RABBIT EARS PA FAIR      54  32  43 W8        30.28F
STEAMBOAT SPGS FAIR      71  30  22 W9        30.04F
WALDEN         FAIR      66  27  22 SW21G30   30.13F
$$

COZ006>008-011-182200-
...WEST CENTRAL VALLEYS...

CITY           SKY/WX    TMP DP  RH WIND       PRES   REMARKS
GRAND JUNCTION FAIR      79  39  23 NW8       29.95F
MONTROSE       FAIR      77  38  24 MISG      30.03F
EAGLE          NOT AVBL
RIFLE          FAIR      79  33  19 W17       29.98F
DELTA          FAIR      82  34  17 MISG      30.00F
NUCLA          FAIR      79  25  13 SW15      30.10F
$$

COZ017>023-064>068-182200-
...SOUTHWEST COLORADO...

CITY           SKY/WX    TMP DP  RH WIND       PRES   REMARKS
DURANGO        FAIR      74  22  14 SW8       30.16F
CORTEZ         FAIR      77  24  14 SW16      30.11F
PAGOSA SPRINGS FAIR      70  22  16 W8G20     30.23F
TELLURIDE      FAIR      67  26  21 CALM      30.26F
WOLF CREEK PAS FAIR      46  30  53 S15G31    30.50F
$$

COZ009-010-012-014-032>034-037-058>063-182200-
...CENTRAL COLORADO...

CITY           SKY/WX    TMP DP  RH WIND       PRES   REMARKS
ASPEN          FAIR      69  26  20 VRB6G17   30.13F
BUENA VISTA    FAIR      69  24  18 W15G24    30.16F
COPPER MTN     FAIR      54  25  32 W3        30.40F
BERTHOUD PASS  FAIR      43  34  70 SW12G26   30.42F
COTTONWOOD PAS FAIR      63  19  19 W10G26    30.28F
GUNNISON       FAIR      68  35  29 W10       30.15F
KREMMLING      FAIR      73  27  17 W10G16    30.11F
LEADVILLE      PTSUNNY   58  25  28 S10G22    30.25F
MONARCH PASS   FAIR      50  30  46 SW18G26   30.52F
SALIDA         FAIR      73  33  22 S6        30.20F
SUNLIGHT       CLOUDY    54  30  40 S6        30.35F
WILKERSON PASS FAIR      55  25  30 SW15G22   30.38F
$$

COZ069>075-182200-
...SAN LUIS VALLEY/SANGRE DE CRISTO MOUNTAINS...

CITY           SKY/WX    TMP DP  RH WIND       PRES   REMARKS
ALAMOSA        FAIR      71  32  23 SE8G21    30.16F
DEL NORTE      FAIR      69  41  36 SE13      30.19F
LA VETA PASS   FAIR      63  32  31 MISG      30.44F
SAGUACHE       FAIR      66  41  39 SE9G17    30.19F
$$

COZ035-036-038>040-182200-
...NORTHERN COLORADO FRONT RANGE...

CITY           SKY/WX    TMP DP  RH WIND       PRES   REMARKS
DENVER INTL AP FAIR      80  28  15 S10G17    29.96F
DMNS CITY PARK   N/A     80  29  16 E9G22     29.93F
AURORA         MOSUNNY   80  30  16 S12G17    29.98F
FRONT RANGE AP MOSUNNY   82  27  13 SW7       29.98F
ERIE MUNI ARPT FAIR      82  25  12 SE15      29.97F
BOULDER MUN AP FAIR      82  32  16 SE8       29.93F
CENTENNIAL     FAIR      79  30  16 S9G17     29.98F
BROOMFIELD     MOSUNNY   81  30  16 E12       29.97F
FORT COLLINS   FAIR      83  34  17 S10G20    29.93F
LONGMONT       FAIR      84  31  14 SE9       29.93F
$$

COZ041-046-047-076>085-087-088-182200-
...PIKES PEAK/PALMER DIVIDE AND SOUTHERN FOOTHILLS...

CITY           SKY/WX    TMP DP  RH WIND       PRES   REMARKS
COLO. SPRINGS  FAIR      78  34  20 VRB3      30.04F
A. F. ACADEMY  FAIR      76  29  17 SE10      30.04F
SCHRIEVER AFB  FAIR      76  31  19 S9G26     30.04F
CHEYENNE MTN   NOT AVBL
ELLICOTT       NOT AVBL
FALCON         FAIR      75  28  17 S6        30.09F
FORT CARSON    FAIR      80  33  18 S20       29.99F
LIMON            N/A    N/A N/A N/A MISG      29.99F
MONUMENT HILL  FAIR      72  30  21 SW10G17   30.09F
CANON CITY     SUNNY     84  36  17 SW15G22   29.98F
WALSENBURG     FAIR      82  30  15 SW18G24   30.05F
TRINIDAD       FAIR      79  42  26 SE9G18    30.04F
$$

COZ042>045-048>051-090-091-182200-
...NORTHEAST COLORADO...

CITY           SKY/WX    TMP DP  RH WIND       PRES   REMARKS
GREELEY ARPT   FAIR      82  32  16 SE7       29.93F
AKRON          FAIR      81  34  18 S9        29.95F
BURLINGTON     FAIR      83  41  22 W8        29.96F
WRAY           FAIR      88  32  13 W6        29.91F
YUMA           FAIR      81  32  17 SW8       29.93F
STERLING       FAIR      84  32  15 W5G20     29.90F
HOLYOKE        FAIR      88  30  12 S7        29.90F
FORT MORGAN    FAIR      83  29  13 E6        29.94F
$$

COZ086-089-092>099-182200-
...SOUTHEAST COLORADO...

CITY           SKY/WX    TMP DP  RH WIND       PRES   REMARKS
PUEBLO         FAIR      84  34  16 CALM      29.95F
LA JUNTA       FAIR      85  35  16 S7        29.94F
LAMAR          FAIR      88  33  14 NW9       29.91F
SPRINGFIELD      N/A     84  44  24 VRB3      29.97F
$$




USA.gov is the U.S. government's official web portal to all federal, state and local government web resources and services.